Wind_Speed
26 23 21 20 19 18 15 11 13 14 12 12 15 15 18 17 15 12 12 12 12 15 15 15 19 21 25 28 25 21 25 24 25 28 29 13 10 15 19 17 10 10 6 4 5
22 21 22 21 16 15 13 10 9 7 9 10 13 12 15 13 15 12 11 9 11 14 14 16 26 34 33 25 20 24 20 24 16 21 22 9 9 18 17 15 9 11 7 6 4
21 23 23 20 15 13 12 12 12 13 12 11 12 12 12 13 14 13 11 12 15 12 18 25 33 35 31 25 19 11 12 9 15 10 8 11 17 15 12 6 5 4 6 5 4
23 18 18 18 14 15 17 17 17 14 11 13 13 12 14 12 16 15 16 20 16 15 23 24 36 35 29 20 13 14 13 6 12 9 10 15 11 5 4 4 5 5 4 4 4
20 17 18 15 14 16 16 18 17 15 13 15 15 15 15 18 18 17 22 25 18 26 32 35 32 30 29 10 8 5 13 12 13 13 12 8 5 5 7 6 6 7 6 4 4
15 21 19 15 14 15 15 14 15 16 17 15 13 16 16 14 18 25 31 31 35 35 38 35 27 27 27 19 10 11 9 15 20 15 7 6 4 4 4 2 4 9 8 7 6
18 14 14 14 15 14 14 15 15 18 17 14 14 13 12 15 26 29 29 35 43 43 39 33 35 36 27 20 20 14 8 13 13 11 9 7 7 5 3 1 1 6 7 4 5
17 13 15 14 16 13 11 13 13 15 16 15 13 10 15 17 25 30 31 34 38 41 38 33 22 21 25 19 16 17 17 15 13 11 9 4 1 4 6 5 3 1 5 6 7
10 4 13 17 13 12 12 12 12 13 11 12 13 15 20 21 20 17 28 28 15 33 29 22 24 20 14 15 17 16 19 12 11 7 1 2 0 11 5 5 2 6 9 11 12
6 5 16 16 17 15 12 12 15 15 17 18 20 20 19 18 21 19 16 17 13 29 19 13 13 20 25 21 18 14 12 8 9 6 6 10 10 5 1 1 4 8 11 16 19
7 6 15 20 13 13 16 19 21 23 22 23 23 22 22 20 19 19 17 17 18 21 23 24 25 25 24 18 15 6 3 6 6 3 6 13 13 13 7 6 7 10 13 16 19
15 8 13 16 18 22 22 22 22 21 22 21 22 23 23 22 19 19 20 20 21 26 26 22 21 21 19 14 10 10 8 7 6 4 8 17 15 14 17 13 12 11 10 16 22
18 13 17 20 22 21 25 28 27 25 25 22 20 21 20 18 19 17 17 18 20 19 16 15 13 15 12 10 10 17 14 12 8 4 8 11 12 15 17 18 14 10 13 19 23
18 18 23 24 26 29 30 29 27 25 25 22 21 21 20 18 18 17 15 13 12 14 14 12 12 10 8 8 7 9 18 19 12 8 12 15 17 21 24 22 22 19 16 17 23
22 27 28 32 32 30 29 28 29 28 27 25 22 21 20 16 17 18 16 14 11 13 12 11 12 11 11 11 10 11 13 16 15 14 14 18 23 26 28 27 24 21 18 16 27
30 32 35 35 32 31 29 30 30 26 25 23 21 18 15 14 12 13 15 14 14 12 12 12 12 11 11 12 11 11 12 13 15 14 14 20 23 29 28 27 27 25 27 29 34
34 37 37 35 33 32 33 31 27 23 21 19 17 14 13 12 10 10 9 8 8 10 11 10 10 10 10 11 13 12 13 15 16 16 17 17 23 28 31 31 30 28 32 35 35
38 39 37 36 35 35 32 27 23 19 18 15 13 10 10 10 11 11 11 11 13 11 10 11 9 9 9 8 6 6 5 6 8 9 12 17 22 24 28 31 34 37 30 29 33
42 41 38 37 37 35 30 25 20 17 15 12 8 8 11 12 11 12 13 12 10 10 9 9 9 8 7 5 4 2 1 2 4 7 13 18 22 26 28 31 33 31 28 37 43
43 41 40 39 37 33 29 25 20 15 8 6 6 7 10 12 12 12 11 11 11 10 11 10 8 6 7 7 5 2 2 3 6 6 11 15 19 24 27 32 34 37 38 40 36
45 43 42 40 36 32 29 24 18 11 7 4 4 5 8 9 10 11 13 14 13 10 9 10 10 8 7 6 3 3 4 6 10 12 13 16 18 22 27 30 31 30 28 28 29
46 46 44 40 36 32 28 24 17 10 5 3 4 3 5 6 7 12 15 15 13 11 10 10 9 9 7 4 2 1 5 8 10 12 14 17 19 23 27 30 30 30 31 29 32
47 48 45 41 37 32 28 21 15 8 3 3 3 3 3 6 11 16 17 16 14 13 13 10 8 6 5 4 3 3 7 10 13 15 17 18 21 25 24 25 27 31 32 30 31
49 49 46 43 37 34 28 20 13 8 4 4 5 5 5 8 14 17 17 15 14 14 12 11 8 6 6 6 6 10 11 12 15 17 19 21 22 28 26 27 29 29 30 31 37
50 49 45 41 38 33 27 19 15 10 6 5 6 5 6 8 12 15 15 16 15 16 13 12 10 9 8 10 12 13 15 19 20 23 24 25 27 25 22 23 26 31 35 38 40
49 48 46 42 39 33 26 21 16 14 10 8 7 6 9 9 11 15 15 17 16 17 16 15 14 13 13 13 15 17 18 21 24 27 29 31 32 32 32 33 34 36 38 40 41
49 47 45 42 38 34 29 25 19 17 15 11 9 9 11 11 13 17 20 22 21 22 21 19 18 18 18 19 21 22 23 25 29 29 31 34 36 38 38 36 36 37 38 40 42
Wind_Direction
281 277 279 286 287 281 258 260 265 261 247 250 237 233 220 222 220 217 210 219 223 209 199 216 197 177 163 171 178 180 194 208 214 229 220 211 230 259 274 295 278 184 243 179 182
277 279 283 281 276 273 246 258 258 243 242 254 249 236 220 219 210 211 206 216 205 201 200 199 170 155 159 162 175 196 203 219 219 205 214 242 313 299 276 283 273 232 230 170 176
278 285 279 272 261 252 241 238 254 251 249 268 242 222 205 203 200 186 186 185 166 188 194 171 164 164 166 163 162 153 175 188 199 212 245 307 302 281 278 236 243 163 183 177 185
283 282 283 257 246 241 240 249 258 254 232 238 222 208 201 190 180 183 181 168 167 178 160 157 156 160 178 165 175 147 144 224 214 207 251 273 282 245 206 140 137 118 176 182 208
285 274 288 245 240 240 237 248 242 231 228 217 213 205 196 177 185 186 169 162 153 153 152 156 165 158 149 148 191 161 170 195 227 236 264 290 201 163 164 181 169 157 173 200 209
283 290 261 238 239 240 238 229 209 213 214 219 217 220 206 198 185 169 156 162 153 158 155 160 165 164 166 167 199 232 178 209 223 241 197 178 179 201 173 214 128 150 172 195 229
290 270 244 230 217 215 218 211 202 204 211 220 229 223 203 186 175 168 168 166 160 161 157 159 169 180 184 197 201 204 213 144 149 178 178 183 203 204 231 282 238 165 174 201 228
298 266 228 220 195 196 197 191 199 205 217 220 208 186 158 165 181 177 170 170 172 171 163 156 154 177 185 184 166 168 150 147 153 161 165 185 231 193 194 192 200 251 279 267 274
271 241 210 185 178 173 185 190 200 206 190 169 153 142 146 153 161 173 169 172 184 173 169 176 186 195 191 140 133 146 161 143 125 81 157 346 334 186 179 160 185 281 288 316 319
258 227 181 187 190 177 193 187 168 153 142 138 133 129 136 151 159 164 164 172 172 175 182 174 140 146 145 141 139 141 139 142 101 49 11 323 320 334 161 195 285 292 302 306 317
195 219 191 209 176 179 163 158 151 143 140 138 137 141 147 155 148 149 157 171 173 174 149 148 159 157 149 145 126 140 228 159 106 288 329 296 303 300 311 296 297 301 300 309 319
184 199 182 168 177 167 159 152 144 140 137 139 139 135 132 131 130 133 139 144 155 160 169 162 163 161 172 161 152 197 212 180 165 298 281 276 285 291 295 299 304 306 299 316 321
173 188 188 182 167 153 143 138 137 134 132 133 134 128 122 125 127 132 141 146 165 174 165 168 174 182 159 168 174 196 213 217 228 241 252 270 276 286 289 286 293 298 309 305 298
174 189 174 160 149 144 140 140 140 139 138 138 136 129 130 136 139 142 153 166 176 183 176 170 172 159 155 190 163 182 210 227 245 238 244 274 276 280 278 286 308 325 302 299 298
183 167 157 150 150 148 148 149 142 142 141 138 137 137 137 143 152 160 169 169 181 183 176 180 183 179 185 205 198 207 208 218 231 236 241 257 259 270 283 297 300 290 296 262 293
170 160 157 156 154 154 153 150 142 142 141 143 146 147 144 149 158 164 177 181 186 180 182 190 190 193 201 211 221 229 233 237 243 249 250 252 259 269 281 284 282 279 291 290 288
167 162 161 162 158 159 156 152 147 150 147 149 152 151 157 169 180 189 190 207 211 212 195 207 213 215 222 226 231 237 244 250 256 255 251 244 249 261 274 280 284 284 286 292 296
169 165 167 166 164 162 159 156 154 155 155 156 165 173 195 207 210 205 208 209 214 210 205 216 212 209 205 208 193 197 208 235 252 253 247 256 261 258 271 278 279 286 297 302 293
171 170 170 170 169 165 164 166 163 158 162 178 196 206 222 226 216 200 210 210 189 177 168 182 181 165 159 160 152 151 169 273 271 261 259 266 275 280 284 286 292 298 292 292 293
173 173 174 175 172 171 174 175 176 164 169 218 248 241 219 213 206 197 204 184 172 168 159 156 168 157 142 139 123 94 62 35 9 327 296 294 290 291 292 292 291 292 293 296 302
176 176 179 179 176 176 181 184 184 191 214 249 291 247 202 210 199 191 184 176 169 161 163 156 146 146 151 143 109 63 43 22 19 15 348 318 317 308 300 303 297 300 303 301 304
178 180 183 182 181 183 184 188 195 207 224 285 301 288 197 206 176 183 175 170 175 170 157 156 157 160 165 155 156 14 8 0 359 1 4 348 343 340 330 328 325 316 312 308 295
182 185 186 185 187 189 193 188 185 216 239 307 286 257 214 161 168 173 172 178 179 175 164 166 166 165 179 200 228 330 329 329 339 340 346 344 340 346 345 335 325 316 312 302 297
187 189 189 191 192 199 201 194 198 213 241 276 271 235 210 183 182 183 186 186 185 186 182 185 188 198 214 231 281 306 315 333 339 338 338 331 336 338 335 329 321 313 306 297 287
191 193 196 198 197 203 206 208 211 223 244 271 297 237 230 214 202 205 200 197 199 198 205 211 222 237 256 267 283 302 315 325 328 328 331 331 333 330 324 315 308 307 304 305 304
194 196 200 202 205 212 211 218 226 236 253 269 279 257 240 241 218 216 216 216 217 216 223 232 245 254 265 273 285 296 304 313 317 326 330 329 328 327 325 323 322 318 313 310 307
199 199 202 208 211 212 216 224 233 240 250 257 283 267 245 237 229 215 220 218 220 224 233 242 249 259 268 274 282 293 304 312 318 326 326 324 326 324 323 320 318 313 309 307 304
Height
5773 5771 5771 5771 5770 5769 5769 5770 5769 5769 5769 5770 5772 5773 5775 5778 5781 5785 5787 5791 5794 5798 5801 5804 5806 5810 5813 5817 5819 5821 5823 5824 5826 5826 5828 5827 5830 5830 5833 5835 5836 5839 5837 5837 5838
5768 5767 5766 5766 5766 5765 5766 5767 5767 5766 5767 5768 5769 5770 5772 5775 5780 5783 5787 5789 5792 5795 5798 5802 5805 5809 5812 5815 5818 5819 5820 5822 5824 5826 5826 5828 5829 5833 5836 5833 5834 5836 5836 5836 5837
5764 5762 5760 5761 5762 5762 5763 5764 5764 5765 5766 5766 5767 5768 5771 5774 5777 5781 5784 5788 5790 5794 5797 5800 5804 5807 5810 5813 5816 5817 5818 5821 5823 5824 5826 5830 5834 5833 5834 5835 5835 5835 5836 5836 5836
5759 5757 5755 5756 5758 5759 5760 5761 5761 5761 5763 5764 5765 5767 5770 5773 5777 5779 5783 5786 5790 5794 5798 5802 5805 5808 5811 5814 5814 5816 5819 5821 5823 5825 5829 5832 5832 5833 5833 5834 5835 5835 5835 5835 5836
5753 5752 5752 5753 5754 5755 5756 5757 5758 5759 5761 5762 5764 5765 5767 5771 5773 5777 5781 5785 5788 5794 5798 5802 5803 5807 5811 5814 5814 5816 5820 5822 5822 5825 5828 5828 5829 5832 5833 5834 5835 5834 5834 5834 5836
5749 5747 5747 5748 5750 5752 5753 5753 5755 5757 5759 5761 5762 5763 5766 5770 5772 5774 5778 5784 5788 5792 5795 5799 5803 5807 5809 5810 5812 5817 5822 5822 5823 5826 5827 5829 5830 5831 5830 5830 5831 5833 5835 5835 5835
5744 5743 5743 5745 5747 5749 5749 5751 5753 5756 5758 5760 5761 5763 5766 5770 5771 5774 5778 5782 5785 5789 5794 5798 5803 5807 5810 5811 5813 5817 5821 5822 5823 5825 5826 5828 5829 5829 5828 5828 5829 5831 5834 5833 5833
5739 5738 5740 5743 5745 5746 5748 5751 5753 5755 5757 5758 5760 5763 5766 5769 5774 5774 5778 5784 5786 5790 5796 5799 5802 5806 5811 5813 5815 5818 5821 5822 5824 5825 5826 5828 5828 5827 5828 5828 5829 5828 5829 5830 5832
5737 5737 5738 5742 5745 5747 5748 5750 5753 5755 5757 5759 5762 5765 5767 5771 5775 5780 5781 5786 5789 5793 5800 5801 5802 5806 5809 5813 5816 5818 5821 5822 5822 5823 5823 5825 5825 5826 5827 5827 5827 5827 5826 5826 5826
5736 5737 5739 5742 5744 5745 5748 5750 5753 5756 5758 5761 5764 5769 5772 5776 5778 5781 5785 5789 5794 5798 5801 5803 5806 5807 5811 5813 5815 5817 5818 5819 5819 5823 5823 5821 5821 5824 5825 5826 5827 5826 5824 5822 5822
5735 5737 5740 5742 5744 5746 5749 5752 5757 5759 5761 5765 5767 5770 5773 5778 5780 5782 5786 5790 5795 5800 5802 5803 5805 5807 5811 5814 5814 5814 5817 5818 5819 5821 5822 5820 5820 5819 5822 5823 5824 5823 5822 5821 5821
5734 5738 5740 5742 5744 5746 5750 5755 5759 5762 5765 5768 5771 5773 5775 5779 5783 5785 5788 5792 5796 5798 5799 5803 5805 5807 5809 5811 5814 5814 5817 5817 5819 5821 5823 5818 5818 5819 5818 5819 5820 5821 5821 5819 5817
5734 5737 5740 5743 5746 5750 5753 5757 5762 5766 5767 5771 5774 5777 5779 5783 5785 5788 5791 5794 5796 5798 5801 5804 5805 5806 5809 5810 5813 5815 5816 5817 5820 5822 5819 5817 5817 5817 5815 5815 5818 5819 5819 5817 5814
5733 5737 5741 5745 5750 5753 5756 5760 5764 5767 5770 5775 5777 5779 5782 5784 5787 5790 5792 5796 5797 5800 5803 5803 5805 5807 5808 5810 5812 5814 5816 5816 5818 5820 5818 5815 5813 5811 5811 5813 5814 5816 5816 5815 5811
5733 5737 5743 5748 5751 5755 5760 5763 5765 5769 5772 5777 5779 5781 5783 5787 5790 5791 5793 5795 5798 5801 5803 5804 5804 5805 5806 5808 5810 5812 5814 5815 5815 5816 5817 5814 5810 5806 5806 5808 5809 5810 5810 5810 5808
5733 5738 5744 5749 5753 5758 5762 5765 5768 5773 5775 5778 5781 5783 5786 5788 5790 5791 5792 5794 5796 5798 5800 5801 5802 5804 5805 5806 5808 5810 5811 5812 5812 5813 5813 5809 5807 5803 5804 5803 5803 5803 5804 5802 5800
5734 5739 5746 5750 5755 5759 5764 5768 5771 5773 5777 5780 5782 5784 5786 5788 5789 5790 5792 5793 5795 5797 5799 5799 5800 5801 5803 5804 5805 5807 5808 5808 5808 5808 5807 5806 5804 5801 5798 5798 5798 5796 5796 5795 5793
5735 5741 5746 5751 5755 5760 5765 5770 5772 5775 5777 5780 5782 5784 5785 5787 5788 5789 5790 5791 5792 5794 5797 5798 5799 5800 5800 5802 5803 5803 5805 5805 5805 5805 5804 5802 5801 5801 5796 5792 5789 5788 5789 5788 5784
5735 5741 5746 5751 5756 5760 5766 5769 5772 5776 5778 5780 5781 5783 5783 5783 5786 5787 5787 5789 5790 5792 5796 5796 5797 5799 5800 5801 5802 5802 5803 5803 5802 5801 5800 5798 5796 5792 5789 5787 5782 5781 5783 5778 5775
5734 5741 5746 5751 5756 5760 5765 5768 5771 5775 5778 5779 5779 5780 5780 5781 5783 5785 5786 5788 5790 5792 5793 5795 5797 5798 5799 5800 5801 5801 5802 5801 5800 5798 5794 5792 5790 5787 5785 5781 5779 5777 5776 5772 5767
5732 5739 5744 5749 5755 5760 5764 5767 5771 5774 5776 5776 5776 5777 5778 5779 5781 5783 5785 5787 5789 5792 5793 5794 5796 5798 5798 5799 5799 5799 5799 5798 5797 5795 5792 5788 5787 5783 5779 5777 5775 5773 5771 5766 5760
5731 5737 5742 5748 5754 5759 5762 5766 5770 5772 5774 5774 5774 5775 5776 5777 5779 5781 5784 5787 5788 5790 5792 5794 5795 5796 5797 5797 5797 5797 5796 5795 5794 5793 5790 5786 5783 5779 5775 5771 5767 5765 5762 5759 5756
5729 5734 5740 5746 5752 5758 5761 5765 5769 5770 5772 5773 5773 5774 5775 5776 5779 5781 5783 5785 5786 5788 5790 5793 5794 5795 5795 5796 5795 5795 5794 5793 5791 5788 5786 5783 5780 5775 5771 5767 5763 5759 5756 5753 5749
5725 5732 5738 5744 5750 5754 5759 5764 5767 5769 5770 5771 5772 5773 5774 5776 5778 5780 5782 5784 5785 5787 5789 5791 5792 5793 5794 5794 5793 5792 5790 5789 5787 5784 5782 5779 5776 5770 5766 5761 5758 5755 5750 5747 5742
5722 5730 5738 5742 5748 5752 5757 5761 5764 5766 5768 5769 5770 5771 5773 5775 5777 5779 5780 5782 5784 5786 5787 5789 5790 5790 5791 5790 5789 5787 5785 5782 5780 5779 5777 5774 5770 5767 5763 5758 5754 5749 5743 5738 5732
5720 5727 5734 5739 5743 5749 5755 5758 5761 5764 5766 5767 5768 5770 5772 5774 5776 5777 5779 5781 5783 5784 5784 5785 5786 5786 5786 5785 5784 5782 5781 5778 5774 5772 5769 5765 5762 5758 5753 5748 5744 5738 5732 5727 5722
5716 5724 5731 5736 5742 5746 5752 5755 5758 5760 5763 5765 5766 5767 5768 5771 5772 5773 5774 5776 5777 5778 5779 5781 5781 5781 5781 5780 5778 5777 5775 5772 5768 5766 5762 5757 5754 5750 5745 5740 5736 5730 5725 5720 5713